Regional Weather Roundup
Issued by NWS

Home | Current Version | Previous Version | Graphics & Text | Print | Product List | Glossary On
Versions: 1 2 3 4 5 6 7 8 9 10 11 12 13 14 15 16 17 18 19 20 21 22 23 24 25 26 27 28 29 30 31 32 33 34 35 36 37 38 39 40 41 42 43 44 45 46 47 48 49 50
000
ASUS43 KIND 171109
RWRIN

WEATHER ROUNDUP FOR INDIANA
NATIONAL WEATHER SERVICE INDIANAPOLIS IN
600 AM EST WED JAN 17 2018

NOTE: "FAIR" INDICATES FEW OR NO CLOUDS BELOW 12,000 FEET WITH NO
SIGNIFICANT WEATHER AND/OR OBSTRUCTIONS TO VISIBILITY.

* - STATION DOES NOT REPORT WEATHER SUCH AS PRECIPITATION OR FOG.

+ - STATION NOT QUALITY CONTROLLED BY THE NATIONAL WEATHER SERVICE.
    USE DATA WITH CAUTION...ESPECIALLY DEWPOINT AND RELATIVE
    HUMIDITY OBSERVATIONS.

INZ001>003-010>013-019-020-171200-
NORTHWEST INDIANA

CITY           SKY/WX    TMP DP  RH WIND       PRES   REMARKS
GARY /AIRPORT/ CLEAR    N/A N/A N/A W10       30.54
KNOX *+        FAIR       3   0  85 SW5       30.51S WCI  -6
LA PORTE +     FAIR      11   9  91 W5        30.50R WCI   3
MICHIGAN CITY+ MOCLDY    14  10  85 SW8       30.51R WCI   3
MONTICELLO +   CLOUDY     2  -2  84 W5        30.54R WCI  -8
RENSSELAER +   FAIR       1  -4  78 SW5       30.54S WCI  -8
VALPARAISO     FAIR       7   4  87 W6        30.51S WCI  -3

$$

LMZ046-743>745-171200-
SOUTHERN LAKE MICHIGAN

STATION/POSITION TIME  TEMP    WIND        PRES    WAVE
                       AIR SEA DIR/SP/G            HT
                 (UTC) (F)     (DEG/KT/KT) (MB)    (FT)
BURNS HARBOR     1040   11     220/  7/  9 1033.9S
MICHIGAN CITY    1040   21     270/ 17/ 20   N/A

$$

INZ004-005-014>016-021>024-171200-
NORTH CENTRAL INDIANA

CITY           SKY/WX    TMP DP  RH WIND       PRES   REMARKS
GOSHEN         CLOUDY     8   5  87 S6        30.48R WCI  -2
LOGANSPORT +   FLURRIES   3   0  85 SW8       30.53S WCI -10
PERU/GRISSOM   MOCLDY     5   3  92 W7        30.51R WCI  -7
ROCHESTER +    FAIR      10   9  92 SW7       30.51R WCI   0
SOUTH BEND     LGT SNOW  13  10  88 SW5       30.48S FOG     WCI   5
WARSAW +       MOCLDY     3   1  92 CALM      30.49S

$$

INZ006>009-017-018-025>027-171200-
NORTHEAST INDIANA

CITY           SKY/WX    TMP DP  RH WIND       PRES   REMARKS
AUBURN +       CLOUDY     3   1  92 CALM      30.50R
FORT WAYNE     FLURRIES   2  -1  88 S6        30.51R WCI  -9
HUNTINGTON +   FLURRIES   4   2  89 S5        30.51R WCI  -5
KENDALLVILLE + CLOUDY     3   0  87 CALM      30.47R

$$

INZ028-029-035-036-043>045-051>053-171200-
WEST CENTRAL INDIANA

CITY           SKY/WX    TMP DP  RH WIND       PRES   REMARKS
CRAWFORDSVL +  FLURRIES   0  -2  92 MISG        N/A
GREENCASTLE +  FLURRIES   1  -4  78 CALM      30.56S
LAFAYETTE      FAIR      -1  -3  91 W3        30.56S
TERRE HAUTE    FAIR      -1  -5  82 W3        30.61R

$$

INZ030>032-037>040-046>048-054>057-064-065-171200-
CENTRAL INDIANA

CITY           SKY/WX    TMP DP  RH WIND       PRES   REMARKS
FRANKFORT +    FAIR       2  -2  83 W7        30.54S WCI -11
GREENWOOD *+   MOCLDY     7   3  83 W8        30.55S WCI  -5
INDIANAPOLIS   FAIR       2  -1  88 W7        30.55R WCI -11
-EAGLE CREEK   MOCLDY     4   0  83 W6        30.54R WCI  -7
MARION +       LGT SNOW   6   4  89 CALM      30.52S
MT COMFORT *+  CLOUDY     7   5  92 W6        30.53S WCI  -3
SHELBYVILLE    CLOUDY     7   2  80 W7        30.54S WCI  -5
ZIONSVILLE +   MOCLDY     2  -1  88 W7        30.53S WCI -11

$$

INZ033-034-041-042-049-050-058-059-171200-
EAST CENTRAL INDIANA

CITY           SKY/WX    TMP DP  RH WIND       PRES   REMARKS
MUNCIE         CLOUDY     7   2  80 SW5       30.51R WCI  -2
RICHMOND +     LGT SNOW   7   5  92 W7        30.50S WCI  -5

$$

INZ060-061-067>069-081>083-085>088-171200-
SOUTHWEST INDIANA

CITY           SKY/WX    TMP DP  RH WIND       PRES   REMARKS
EVANSVILLE     CLOUDY    10   6  84 W8        30.66R WCI  -2
HUNTINGBURG +  FLURRIES   8   5  87 W6        30.63R WCI  -2
WASHINGTON +   FLURRIES   8   1  74 NW10      30.63S WCI  -7

$$

INZ062-063-066-070>080-084-089>092-171200-
SOUTH CENTRAL AND SOUTHEAST INDIANA

CITY           SKY/WX    TMP DP  RH WIND       PRES   REMARKS
BATESVILLE *+    N/A    N/A N/A N/A MISG        N/A
BLOOMINGTON    CLOUDY     6   2  83 W6        30.56S WCI  -4
FRENCH LICK *+ CLOUDY     7   5  92 CALM      30.59R
MADISON *+     CLOUDY     9   3  78 CALM      30.59R
NORTH VERNON + LGT SNOW   7   3  85 W5        30.57S WCI  -2

$$





USA.gov is the U.S. government's official web portal to all federal, state and local government web resources and services.